Kivalina, AK

10:52 AM AKST on December 18, 2017 (GMT -0900)
Kivalina

Weather History for PAVL - February, 2013

Change the Weather History Date:

Saturday, February 2, 2013

  Actual Average (PAWN) Record (PAWN)
Temperature  
Mean Temperature -4 °F -  
Max Temperature 8 °F 1 °F 39 °F (2007)
Min Temperature -15 °F -8 °F -54 °F (2012)
Degree Days  
Heating Degree Days 68    
Moisture  
Dew Point -4 °F    
Average Humidity 78    
Maximum Humidity 83    
Minimum Humidity 73    
Precipitation  
Precipitation 0.00 in - - ()
Sea Level Pressure  
Sea Level Pressure 29.76 in    
Wind  
Wind Speed 7 mph (NNE)    
Max Wind Speed 14 mph    
Max Gust Speed -    
Visibility 10 miles    
Events Snow    
Averages and records for this station are not official NWS values.
T = Trace of Precipitation, MM = Missing Value Source: NWS Daily Summary

Daily Weather History Graph

Daily Weather History Graph

Search for Another Location

Airport or City:

Trip Planner

Search our weather history database for the weather conditions in past years. The results will help you decide how hot, cold, wet, or windy it might be!

Date:

Astronomy

Feb. 02, 2013 Rise Set
Actual Time 11:05 AM AKST 5:19 PM AKST
Civil Twilight 9:56 AM AKST 6:28 PM AKST
Nautical Twilight 8:47 AM AKST 7:37 PM AKST
Astronomical Twilight 7:43 AM AKST 8:41 PM AKST
Moon 3:19 AM AKST (2/2) 10:34 AM AKST (2/2)
Length of Visible Light 8h 32m
Length of Day
6h 13m
Waning Gibbous, 58% of the Moon is Illuminated
Feb 2
Waning Gibbous
Feb 3
Last Quarter
Feb 9
New
Feb 17
First Quarter
Feb 25
Full

Hourly Weather History & Observations

Time (AKST) Temp. Windchill Dew Point Humidity Pressure Visibility Wind Dir Wind Speed Gust Speed Precip Events Conditions
12:53 AM -15.0 °F -29.3 °F -18.9 °F 82% 30.04 in 10.0 mi North 5.8 mph - N/A   Clear
1:53 AM -13.0 °F -22.7 °F -17.0 °F 82% 30.02 in 10.0 mi NE 3.5 mph - N/A   Clear
3:53 AM -5.1 °F -22.5 °F -9.9 °F 80% 29.96 in 10.0 mi North 10.4 mph - N/A   Clear
4:53 AM -7.1 °F -23.9 °F -11.9 °F 79% 29.93 in 10.0 mi North 9.2 mph - N/A   Clear
5:53 AM -7.1 °F -23.9 °F -11.0 °F 83% 29.88 in 10.0 mi NNE 9.2 mph - N/A   Clear
6:53 AM -2.0 °F -15.4 °F -7.1 °F 79% 29.86 in 10.0 mi NNE 6.9 mph - N/A   Clear
7:53 AM -2.9 °F -13.3 °F -7.1 °F 82% 29.82 in 10.0 mi NNE 4.6 mph - N/A   Clear
8:53 AM 1.9 °F -10.6 °F -4.0 °F 76% 29.79 in 10.0 mi NNE 6.9 mph - N/A   Clear
9:53 AM 1.9 °F -7.6 °F -2.9 °F 80% 29.77 in 10.0 mi NNE 4.6 mph - N/A   Clear
10:53 AM 1.0 °F -8.7 °F -4.0 °F 79% 29.75 in 10.0 mi NNE 4.6 mph - N/A   Clear
11:53 AM 1.0 °F -15.8 °F -5.1 °F 75% 29.75 in 10.0 mi NE 11.5 mph - N/A   Clear
12:53 PM 3.0 °F -9.3 °F -2.9 °F 76% 29.73 in 10.0 mi NE 6.9 mph - N/A   Overcast
1:53 PM 3.9 °F -11.3 °F -2.0 °F 76% 29.71 in 10.0 mi North 10.4 mph - N/A   Overcast
2:53 PM 5.0 °F -9.1 °F -0.9 °F 76% 29.70 in 10.0 mi NNE 9.2 mph - N/A   Overcast
3:53 PM 6.1 °F -7.8 °F -0.0 °F 76% 29.68 in 10.0 mi NNE 9.2 mph - N/A   Overcast
4:53 PM 7.0 °F -6.6 °F -0.0 °F 73% 29.66 in 10.0 mi NNE 9.2 mph - N/A   Overcast
5:53 PM 8.1 °F -3.2 °F 1.0 °F 73% 29.66 in 10.0 mi NE 6.9 mph - N/A   Overcast
6:53 PM 7.0 °F -5.7 °F 1.9 °F 80% 29.65 in 10.0 mi North 8.1 mph - N/A   Overcast
7:53 PM 8.1 °F -3.2 °F 1.9 °F 76% 29.65 in 9.0 mi ENE 6.9 mph - N/A   Overcast
8:53 PM 8.1 °F -2.0 °F 3.0 °F 80% 29.64 in 4.0 mi NNW 5.8 mph - 0.00 in Snow Light Snow
9:53 PM 7.0 °F -1.7 °F 1.9 °F 80% 29.64 in 5.0 mi North 4.6 mph - 0.00 in Snow Light Snow
10:53 PM 6.1 °F -6.8 °F 1.0 °F 80% 29.64 in 10.0 mi North 8.1 mph - 0.00 in   Overcast
11:53 PM 3.9 °F -13.7 °F -0.9 °F 80% 29.63 in 10.0 mi NNE 13.8 mph - N/A   Overcast